Presure
170 181 180 160 164 184 188 182 198 190 205 271 402 417 398 389 380 416 424 429 457 437 374 348 246 236 250 237 208 213 216 220 144 201 158 199 166 170 169 170 162 149 156 174 177
176 172 162 164 174 169 182 188 177 201 232 267 395 393 387 375 385 399 411 408 432 432 472 358 345 302 229 245 233 219 212 179 205 190 177 186 194 190 189 145 164 165 163 160 152
175 171 157 165 162 185 148 153 164 199 177 270 391 395 375 361 383 392 389 388 389 402 144 439 344 335 219 243 235 239 222 190 205 223 121 152 158 185 180 159 159 84 121 151 170
174 163 156 167 173 183 190 154 198 161 129 283 403 386 371 365 366 395 398 403 391 402 427 438 346 329 318 219 233 244 222 222 193 189 193 212 206 78 187 189 73 150 191 169 152
172 158 171 159 162 176 185 198 190 190 209 292 407 385 365 369 369 373 370 387 417 408 417 426 393 324 323 230 220 249 237 226 211 192 189 218 200 201 177 201 139 194 176 191 153
170 168 169 167 179 177 189 181 179 147 245 280 413 388 364 372 369 360 368 377 381 419 411 419 390 329 320 144 225 236 237 209 209 214 203 187 203 183 222 197 184 195 196 183 178
148 167 175 169 163 169 183 195 167 205 191 273 421 381 375 371 371 356 360 373 386 417 413 402 380 345 316 240 215 205 94 204 213 226 213 209 199 76 225 199 188 191 199 183 176
168 171 172 172 176 166 178 190 169 158 228 263 419 393 386 372 365 379 363 363 367 406 409 397 369 351 309 315 295 201 206 221 212 214 224 222 216 219 201 173 199 215 210 204 167
170 163 166 170 170 159 173 189 191 199 218 250 391 276 379 375 372 380 360 364 366 377 417 398 362 348 327 320 295 297 214 218 205 140 213 205 199 216 171 104 159 119 211 205 207
172 166 162 172 168 174 171 146 200 195 192 237 260 319 386 382 376 367 363 363 368 381 413 401 352 335 304 316 289 285 282 207 206 209 216 213 202 218 209 209 114 170 175 206 201
172 174 167 164 176 165 169 179 181 192 170 216 246 355 422 362 362 355 348 357 422 394 440 409 348 317 305 291 284 270 290 237 212 200 196 197 202 196 200 205 209 204 176 174 201
164 170 166 175 186 171 173 171 176 169 175 194 233 253 379 372 352 336 345 342 362 438 479 411 335 303 299 292 280 269 265 223 218 202 106 223 211 104 200 212 212 212 136 176 179
164 165 154 168 180 175 154 163 178 189 181 195 210 242 254 378 359 354 330 341 346 403 432 341 313 297 307 249 271 269 186 187 219 152 206 100 164 105 112 195 212 197 213 172 172
161 157 155 167 167 178 179 167 165 181 172 191 203 217 232 243 353 359 363 339 374 437 319 298 296 300 273 259 270 215 232 272 91 193 200 211 131 235 109 191 216 201 218 213 171
163 163 179 167 177 169 178 163 172 180 179 175 196 200 227 229 235 325 379 382 334 316 312 316 307 324 283 256 241 254 250 250 218 92 234 150 189 223 226 214 212 215 198 202 209
169 172 168 129 177 179 174 171 180 185 180 176 187 199 199 210 223 230 235 353 288 322 341 323 311 296 268 260 253 239 247 147 136 213 211 213 225 203 230 219 196 205 208 211 210
184 182 168 182 184 182 182 172 179 154 179 195 174 183 207 187 209 211 217 224 235 339 327 314 280 262 277 266 220 248 253 184 222 252 223 226 102 79 79 126 175 203 217 230 212
176 184 189 190 186 197 187 180 169 174 177 172 164 191 170 202 191 203 207 215 210 210 222 269 257 287 276 266 273 261 258 251 248 256 249 226 236 235 111 215 200 93 202 214 232
185 172 172 173 199 184 175 147 181 157 180 168 179 184 180 172 200 189 186 208 203 208 203 211 221 291 285 276 270 253 256 75 88 115 118 271 229 104 95 86 223 212 195 208 214
162 186 187 186 188 187 172 188 196 171 156 174 170 173 195 170 176 202 177 192 199 198 203 205 201 207 213 252 266 72 269 174 254 259 261 217 258 168 235 71 193 186 159 210 210
176 192 170 172 184 188 189 174 183 182 192 169 176 170 171 168 167 175 199 184 189 181 199 198 196 199 208 202 221 209 255 235 213 258 256 261 250 257 236 201 158 198 224 176 217
213 172 183 179 194 187 192 193 159 168 181 163 162 173 171 179 168 173 159 178 187 169 177 189 196 204 204 203 208 209 225 85 138 260 129 245 237 251 248 139 200 99 140 223 191
179 182 192 189 190 192 187 190 169 186 178 170 149 177 157 169 183 168 178 168 179 198 186 187 186 192 203 205 209 205 211 225 116 138 259 79 275 267 268 267 221 103 213 218 220
199 203 203 183 200 192 196 197 197 186 190 174 189 167 182 175 179 172 167 178 186 180 186 197 183 184 186 196 201 204 207 213 217 165 293 272 241 267 270 226 262 208 204 212 220
199 209 204 197 206 199 205 201 201 194 208 189 179 182 198 183 160 188 182 173 169 180 176 178 195 165 175 187 191 203 199 207 215 218 213 240 291 262 183 109 286 269 206 212 207
217 218 217 213 219 212 215 212 204 201 213 187 196 201 168 195 186 194 184 182 167 187 191 185 170 200 198 188 202 189 192 210 207 206 222 214 231 250 292 273 265 266 253 232 204
216 217 230 194 189 197 218 210 205 227 212 210 204 209 203 213 201 199 179 162 191 188 187 191 175 179 197 190 188 206 183 188 194 201 215 212 220 220 228 242 291 282 273 220 272
Wind_Speed
51 56 57 48 55 71 78 77 92 87 111 119 72 53 48 39 41 26 23 27 34 58 85 90 121 129 136 143 130 125 129 120 75 119 94 126 98 104 95 97 93 77 79 92 86
56 53 50 53 67 62 82 88 75 101 109 119 64 49 38 33 32 26 20 16 23 32 42 91 90 104 132 136 136 131 117 87 118 116 118 119 123 121 121 75 98 101 91 84 75
56 56 47 59 56 84 42 56 64 101 46 112 57 41 31 30 29 19 20 21 21 31 63 64 91 93 119 131 132 130 123 105 112 117 57 81 93 117 105 85 96 31 58 76 88
57 53 48 61 70 84 91 57 92 40 26 119 47 33 26 27 24 15 11 11 22 28 39 54 91 88 98 121 126 129 121 123 114 114 77 123 117 32 109 114 24 82 101 92 72
57 50 60 57 62 79 89 92 90 81 80 116 32 24 22 23 17 7 9 9 14 26 33 53 81 87 92 126 115 120 122 114 122 117 107 113 97 111 100 108 70 107 98 95 74
55 59 60 66 77 82 90 86 77 45 116 109 22 17 22 16 14 13 8 4 6 23 40 54 79 88 89 44 115 121 123 114 118 120 118 102 101 96 110 103 94 101 99 94 92
44 60 67 65 59 70 89 93 59 102 60 121 15 20 18 14 14 9 10 6 9 18 42 61 79 88 82 66 114 105 37 112 115 116 120 117 112 31 94 84 103 100 97 93 86
58 61 63 67 71 65 85 94 58 37 108 120 23 18 14 12 15 10 2 3 7 11 38 61 76 83 85 90 98 107 116 117 118 118 117 110 111 108 95 80 95 94 95 95 89
59 56 60 62 63 51 78 92 94 97 106 118 54 16 21 18 17 13 9 4 7 19 23 59 73 79 82 79 92 94 115 113 109 61 102 100 88 105 71 31 78 49 88 92 92
57 57 56 67 59 74 70 51 95 86 85 113 118 48 25 23 20 30 28 15 1 18 28 55 68 72 75 81 88 90 99 114 112 112 111 105 88 101 93 92 36 81 76 87 88
56 57 58 58 73 55 63 79 86 91 64 98 112 60 21 34 38 42 40 36 17 19 25 56 67 72 77 81 85 82 72 108 115 97 90 77 96 84 78 91 93 91 82 78 82
56 57 55 66 70 63 67 65 70 65 71 91 100 109 57 36 39 41 41 36 29 11 39 57 66 69 72 85 84 91 97 113 113 100 41 96 97 38 91 98 95 92 56 78 73
56 58 40 61 66 67 46 45 70 83 78 85 90 100 110 53 56 36 31 34 22 16 49 56 64 67 71 65 71 71 63 93 108 79 101 42 61 43 45 86 97 80 89 77 72
55 51 48 63 58 67 68 48 44 67 57 85 88 93 100 110 58 50 25 25 21 24 59 59 60 65 71 68 58 71 63 74 22 79 92 92 51 94 38 89 90 85 88 88 76
59 59 65 61 62 61 66 42 50 62 64 57 80 79 90 95 94 69 52 27 43 49 50 62 62 68 75 72 72 67 77 70 104 48 96 61 83 96 97 96 94 84 80 84 87
61 63 60 31 62 62 62 58 66 67 56 52 74 76 78 84 86 93 87 46 34 37 54 60 63 71 76 77 77 74 60 48 40 100 98 91 92 83 92 92 85 85 86 87 86
53 52 58 63 64 55 61 59 64 32 61 70 49 70 74 57 76 76 82 83 86 51 59 64 38 51 74 76 64 71 80 54 72 86 100 92 44 22 19 47 60 86 85 77 86
52 53 54 58 60 60 60 58 53 56 58 47 25 62 44 67 61 70 70 73 71 69 69 28 13 55 50 58 64 72 78 80 81 81 75 86 86 92 50 91 85 29 78 87 83
51 55 54 55 60 56 53 15 55 33 54 45 57 58 52 43 59 58 52 64 60 62 59 63 61 47 38 46 52 43 56 17 32 34 22 81 83 30 25 17 86 83 79 81 82
56 52 55 51 53 53 52 53 52 44 20 47 45 44 59 36 51 51 41 51 53 53 53 55 51 51 53 8 22 16 52 28 60 62 65 50 70 67 81 20 75 61 59 77 78
51 55 52 54 49 52 53 50 52 44 49 41 44 41 40 30 24 42 45 39 44 38 43 39 36 39 44 36 41 23 34 39 36 57 58 62 65 67 77 81 51 75 87 63 90
60 52 55 56 57 50 50 53 25 36 45 28 30 38 37 40 28 33 12 36 33 18 28 35 32 33 29 25 30 29 34 23 36 54 32 57 59 68 72 44 73 27 39 93 79
54 57 60 59 57 55 48 47 38 49 44 37 21 35 16 32 35 22 34 18 31 27 18 23 25 26 26 25 29 21 26 29 17 27 46 21 61 61 65 65 83 25 88 90 89
66 72 69 53 64 56 54 56 55 45 45 41 44 28 33 25 31 24 13 29 25 30 24 18 13 15 18 19 17 18 20 20 21 10 28 30 41 49 65 67 67 83 84 90 92
67 70 71 65 69 59 59 56 59 52 53 45 46 44 38 30 19 28 27 20 10 25 20 20 17 11 2 9 10 10 10 14 16 14 5 7 37 42 40 30 58 68 79 79 72
71 72 71 71 70 60 67 62 55 54 53 46 47 45 28 40 32 30 28 28 22 27 27 24 10 13 13 14 13 9 7 8 6 7 9 8 8 8 39 55 58 61 64 80 76
72 69 62 52 48 50 62 58 54 56 49 49 52 54 49 45 41 37 29 25 32 29 28 31 17 23 17 18 20 18 15 11 12 11 11 14 7 8 8 23 48 59 66 57 71
Wind_Direction
351 347 350 343 344 344 344 340 336 329 328 331 324 315 306 299 294 297 272 260 242 230 217 218 224 224 221 230 232 232 231 228 222 227 235 230 230 233 228 227 230 224 225 241 239
351 353 350 349 351 347 347 344 334 335 335 337 326 315 311 302 304 295 289 260 245 221 211 212 212 214 225 222 228 231 230 228 230 229 231 232 230 230 233 229 231 232 229 231 228
352 353 349 352 348 349 340 329 333 341 338 341 325 321 316 311 314 287 277 247 221 202 212 204 207 208 223 219 225 225 229 227 228 227 210 225 228 231 231 227 228 202 223 221 232
353 353 351 353 356 351 350 335 345 337 304 347 326 327 323 320 318 330 313 264 215 211 202 197 205 203 205 225 222 219 226 227 228 230 208 231 230 211 232 231 202 226 232 230 225
351 352 352 353 354 359 355 352 352 347 357 354 330 333 327 324 326 325 292 292 235 208 196 192 194 199 200 216 221 212 218 220 228 229 230 228 230 230 232 231 231 232 233 231 228
351 352 352 359 357 360 356 359 356 339 1 1 341 343 333 330 319 305 302 232 211 207 188 187 188 196 197 199 216 215 216 223 227 228 231 232 231 231 229 231 233 234 230 230 232
350 354 351 359 2 3 359 358 353 358 1 7 5 354 351 341 327 330 325 284 208 193 183 183 185 194 192 195 216 220 165 224 226 220 228 231 233 236 228 225 234 235 234 228 229
351 351 353 357 355 3 3 0 3 357 3 11 15 6 18 355 1 331 305 240 183 196 182 182 183 189 187 193 196 210 217 217 223 226 226 224 231 232 231 224 230 231 234 233 228
349 354 357 359 1 2 6 1 4 7 6 13 20 20 21 18 24 27 48 164 174 146 171 182 182 186 186 187 189 193 216 216 222 225 218 228 224 230 232 230 229 229 229 233 235
344 350 358 354 1 358 9 349 3 8 9 18 21 23 16 33 52 64 59 56 358 188 177 179 179 178 178 179 183 193 201 215 220 226 224 226 226 227 233 231 227 223 225 231 231
343 344 352 1 350 4 11 9 15 10 2 17 24 27 38 62 72 72 63 55 50 167 177 174 172 172 174 179 184 191 187 200 214 222 222 219 227 227 222 234 230 227 224 224 228
344 346 353 349 351 359 7 20 20 12 11 20 25 29 42 62 58 60 65 54 41 106 164 168 160 165 170 177 185 193 194 202 208 219 204 212 216 227 229 228 228 227 227 223 224
343 345 357 352 351 353 348 26 12 10 20 18 22 31 34 61 51 45 45 82 67 72 159 148 156 166 165 171 178 188 196 206 211 216 217 214 219 218 224 222 228 227 225 219 220
342 350 357 347 354 350 352 14 21 17 25 19 22 28 36 37 50 49 59 76 59 116 142 153 157 161 169 177 176 194 192 201 213 204 213 213 220 208 223 224 224 224 223 223 219
333 339 334 347 343 350 348 11 10 12 20 29 23 26 34 39 41 45 56 70 125 137 148 150 156 161 166 173 186 183 197 200 209 201 208 217 218 212 211 217 225 220 226 228 224
329 331 339 336 342 341 347 355 357 4 17 29 20 23 30 35 40 41 46 61 67 136 142 142 143 149 160 175 183 193 193 212 210 216 216 212 214 223 212 214 228 227 229 229 227
332 335 337 335 335 341 340 351 353 351 6 5 39 27 28 37 38 44 46 49 49 136 139 142 153 159 171 181 186 190 198 208 208 204 214 214 226 252 249 228 219 228 224 224 227
331 343 342 340 336 344 338 341 356 359 1 16 40 14 45 27 33 37 45 47 49 49 49 79 57 168 180 188 186 197 206 213 212 213 211 217 217 213 227 216 224 249 229 231 228
339 327 332 334 339 337 340 355 339 352 354 7 3 8 23 40 28 30 42 46 47 51 50 45 47 172 184 189 193 214 215 222 223 229 228 219 218 238 240 297 220 229 230 234 232
328 334 333 339 341 333 335 338 343 347 6 354 4 8 3 45 27 30 36 36 45 44 50 48 43 42 44 4 241 224 223 244 224 227 228 221 221 216 225 255 225 231 235 236 239
328 332 324 327 332 332 331 332 332 340 341 352 352 1 4 19 38 26 26 34 33 43 43 48 50 46 45 46 41 253 253 248 246 237 235 228 225 226 221 221 225 229 227 234 234
314 317 324 323 320 325 327 327 344 337 333 354 354 350 354 351 12 12 64 23 30 44 36 34 33 39 42 45 44 49 39 250 206 243 236 237 228 230 226 226 227 251 246 230 236
315 314 319 317 317 313 317 318 328 314 323 331 316 333 342 348 343 3 355 26 10 22 37 36 32 29 30 29 28 28 33 35 255 243 237 243 243 242 237 233 226 241 230 231 233
310 308 307 312 310 307 309 311 314 308 309 323 321 311 323 329 327 323 350 343 346 355 2 21 37 28 24 23 23 22 22 26 30 327 244 215 232 233 239 226 234 230 233 234 230
308 301 303 304 304 307 304 305 308 304 306 304 311 312 313 312 290 311 316 322 339 333 348 344 347 255 248 2 4 16 13 16 13 35 14 3 229 219 244 256 230 228 235 239 243
299 298 297 298 298 305 303 299 302 301 295 299 301 299 310 301 304 297 302 303 289 309 306 320 298 329 323 316 325 324 316 352 334 324 357 284 19 22 226 228 233 234 239 238 239
302 302 296 304 301 305 302 301 299 296 291 288 288 295 293 294 296 294 296 268 288 294 297 297 307 317 302 301 298 305 259 275 285 295 314 287 264 245 269 240 230 235 236 241 239